SCP
-0 0 0 0 0 0 0 0 0 0 0 0 0 0 0 -0 -0 -0 -0 -0 -0 -0 -0 -0 -0 0 0 0 0 0 0 0 0 0 0 0 0 0 0 0 0 0 0 0 0 -0 0
-0 -0 0 0 -0 -0 -0 -0 -0 -0 0 0 0 0 0 -0 -0 -0 -0 -0 -0 -0 -0 -0 -0 0 0 0 0 0 0 0 0 0 0 0 0 0 0 0 0 0 0 0 0 0 -0
0 0 0 -0 -0 -0 -0 -0 -0 -0 0 0 -0 -0 -0 -0 -0 -0 -0 -0 -0 -0 -0 -0 -0 0 0 0 0 0 0 0 0 0 0 0 0 0 0 0 0 0 0 0 0 0 0
0 0 0 0 -0 -0 0 0 0 -0 -0 -0 -0 -0 0 0 0 -0 -0 -0 -0 -0 0 0 0 0 0 -0 -0 -0 0 0 0 0 0 0 0 0 0 0 0 0 0 0 0 0 0
0 0 0 0 -0 -0 0 0 -0 -0 -0 -0 -0 0 0 0 -0 -0 -0 -0 -0 0 0 0 0 0 -0 -0 0 0 0 0 0 0 0 0 0 0 0 0 0 0 0 0 0 0 0
0 0 0 0 0 0 0 -0 -0 -0 -0 -0 -0 -0 0 0 -0 -0 0 -0 0 0 0 0 0 0 -0 -0 -0 -0 0 0 0 0 0 0 0 0 0 0 0 0 0 0 0 0 0
0 0 0 0 -0 -0 -0 -0 -0 -0 -0 -0 -0 -0 -0 -0 -0 -0 -0 0 -0 -0 0 0 0 0 0 -0 -0 -0 0 0 0 0 0 0 0 0 0 0 0 0 0 0 0 0 0
0 0 0 0 -0 -0 -0 -0 -0 -0 -0 -0 -0 -0 -0 -0 -0 -0 -0 -0 -0 0 -0 0 0 0 -0 0 -0 -0 0 0 0 0 0 0 0 0 0 0 0 0 0 0 0 0 -0
0 0 0 0 -0 -0 -0 -0 -0 -0 -0 -0 -0 -0 0 0 -0 -0 -0 -0 0 0 -0 -0 0 -0 -0 -0 -0 -0 0 0 0 0 0 0 0 0 0 0 0 0 0 0 0 -0 -0
0 0 0 0 -0 -0 -0 -0 -0 -0 -0 -0 -0 0 0 0 -0 -0 -0 0 0 0 -0 -0 -0 -0 -0 0 -0 -0 -0 0 0 0 0 0 0 0 0 0 0 0 0 0 0 0 0
0 0 -0 -0 -0 -0 -0 -0 0 0 0 0 0 0 -0 -0 -0 -0 -0 0 0 0 0 0 0 -0 -0 0 -0 -0 -0 0 0 0 0 0 0 0 0 0 0 0 0 0 0 0 0
0 0 -0 -0 -0 -0 0 0 0 0 0 0 0 -0 -0 -0 -0 0 0 0 0 -0 0 0 0 0 0 -0 -0 -0 -0 0 0 0 0 0 0 0 0 0 0 0 0 0 0 -0 -0
0 -0 -0 -0 -0 -0 -0 0 0 0 0 0 0 0 -0 -0 -0 -0 0 -0 0 0 0 0 0 0 0 0 0 0 0 -0 0 0 0 0 0 0 0 0 0 0 0 -0 -0 0 0
-0 -0 0 0 0 -0 -0 0 0 0 -0 -0 -0 -0 -0 0 -0 -0 -0 0 -0 0 -0 -0 0 0 0 0 0 0 0 0 0 0 0 0 0 0 0 0 0 -0 0 -0 -0 -0 -0
-0 0 0 0 0 0 0 0 0 -0 -0 -0 0 -0 -0 -0 0 -0 0 0 0 0 0 0 0 -0 -0 -0 -0 0 0 -0 0 0 0 0 0 0 0 0 0 0 0 0 0 0 -0
0 0 0 0 0 0 0 0 -0 -0 -0 -0 -0 -0 -0 -0 -0 0 0 0 0 0 0 -0 0 0 0 -0 0 0 0 0 0 0 -0 0 0 0 0 0 0 0 0 0 0 -0 -0
0 0 0 0 0 0 0 0 -0 -0 -0 0 -0 0 -0 -0 0 0 0 0 0 -0 0 0 0 0 0 0 0 0 0 0 0 0 0 -0 0 0 0 0 0 0 0 0 0 0 -0
0 0 0 0 0 0 0 0 0 -0 -0 -0 -0 0 -0 -0 0 0 0 0 -0 0 0 0 0 0 0 0 0 0 0 0 0 0 0 0 -0 0 0 0 0 0 0 0 0 0 0
0 0 0 0 0 0 0 0 0 0 0 -0 -0 -0 -0 -0 0 0 0 0 0 0 0 0 0 0 0 0 0 0 0 0 0 0 0 0 0 0 0 0 0 0 0 0 0 0 0
0 0 0 0 0 0 0 0 0 0 0 -0 -0 0 -0 0 -0 0 0 0 0 0 0 0 0 0 0 0 0 0 0 0 0 0 0 0 0 0 0 0 0 0 0 0 0 0 0
0 0 0 0 0 0 0 0 0 0 0 -0 0 0 0 0 0 0 0 -0 0 0 0 0 0 0 0 0 0 0 0 0 0 0 0 0 0 0 0 0 0 0 0 0 0 0 0
0 0 0 0 0 0 0 0 0 0 0 0 0 0 0 0 0 0 0 0 0 0 0 0 0 0 0 0 0 0 0 0 0 0 0 0 0 0 0 0 0 0 0 0 0 0 0
0 0 0 0 0 0 0 0 0 0 0 0 0 0 0 0 0 0 0 0 0 0 0 0 0 0 0 0 0 0 0 0 0 0 0 0 0 0 0 0 0 0 0 0 0 0 0
0 0 0 0 0 0 0 0 0 0 0 0 0 0 0 0 0 0 0 0 0 0 0 0 0 0 0 0 0 0 0 0 0 0 0 0 0 0 0 0 0 0 0 0 0 0 0
0 0 0 0 0 0 0 0 0 0 0 0 0 0 0 0 0 0 0 0 0 0 0 0 0 0 0 0 0 0 0 0 0 0 0 0 0 0 0 0 0 0 0 0 0 0 0
0 0 0 0 0 0 0 0 0 0 0 0 0 0 0 0 0 0 0 0 0 0 0 0 0 0 0 0 0 0 0 0 0 0 0 0 0 0 0 0 0 0 0 0 0 0 0
0 0 0 0 0 0 0 0 0 0 0 0 0 0 0 0 0 0 0 0 0 0 0 0 0 0 0 0 0 0 0 0 0 0 0 0 0 0 0 0 0 0 0 0 0 0 0
0 0 0 0 0 0 0 0 0 0 0 0 0 0 0 0 0 0 0 0 0 0 0 0 0 0 0 0 0 0 0 0 0 0 0 0 0 0 0 0 0 0 0 0 0 0 0
0 0 0 0 0 0 0 0 0 0 0 0 0 0 0 0 0 0 0 0 0 0 0 0 0 0 0 0 0 0 0 0 0 0 0 0 0 0 0 0 0 0 0 0 0 0 0
Wind_Speed_500mb
21 18 16 14 11 10 10 11 14 17 19 20 21 19 18 19 21 24 26 27 28 25 22 22 16 12 10 5 5 7 7 3 27 34 30 25 20 12 2 4 2 3 11 12 14 29 27
21 18 14 13 12 9 9 10 11 13 16 19 20 19 19 19 21 23 24 25 29 27 22 21 16 12 7 4 4 5 13 17 13 25 27 28 14 10 8 6 2 8 24 16 18 10 24
23 21 15 14 15 11 8 9 10 12 15 17 19 21 23 22 19 21 23 25 30 28 21 19 15 14 9 4 11 5 2 5 6 15 26 24 18 7 12 2 8 18 9 5 21 16 7
26 24 20 20 18 13 11 11 12 13 14 16 19 22 23 22 19 19 22 26 32 25 19 18 17 21 6 13 15 11 7 5 5 14 17 10 18 14 6 19 7 6 5 5 7 11 8
34 29 25 23 19 15 14 12 13 14 15 16 19 23 24 24 20 15 21 27 28 20 17 22 15 18 3 8 21 22 20 7 6 10 15 20 6 6 4 6 7 10 3 6 6 6 7
33 31 27 24 20 17 15 15 14 15 16 17 19 22 24 24 18 11 19 28 27 14 12 17 10 12 9 19 1 3 22 16 7 9 12 9 7 5 7 7 9 8 5 2 2 9 4
36 34 30 26 23 20 18 18 17 17 19 19 19 22 24 22 14 6 13 30 29 8 47 18 31 16 23 12 1 10 9 13 16 2 7 6 7 9 12 9 8 7 6 5 9 16 7
38 36 32 28 24 23 20 19 18 19 20 19 20 21 21 17 9 6 17 27 28 25 24 30 17 24 17 16 8 9 10 9 9 7 4 11 5 13 9 8 9 5 0 10 12 9 7
37 35 33 30 25 25 22 20 20 21 21 20 21 20 18 12 4 5 15 25 32 33 4 22 13 11 5 5 4 7 14 5 7 4 5 9 10 9 9 6 5 9 8 15 13 6 7
36 36 35 30 27 26 25 24 24 23 23 23 22 21 16 7 4 11 13 31 39 23 9 13 7 3 11 9 4 20 15 6 8 12 3 8 15 13 8 10 15 12 9 15 21 20 5
38 36 35 34 30 27 28 27 27 24 24 24 21 19 15 4 9 8 17 25 30 10 7 1 4 4 8 7 7 6 21 13 3 5 7 14 8 8 10 14 14 5 16 15 10 11 6
40 38 35 35 31 30 30 29 28 26 25 24 23 17 14 7 9 11 22 25 2 11 7 9 4 5 6 5 3 19 10 8 5 4 3 15 13 10 2 2 17 36 34 24 13 6 4
41 41 38 35 34 32 33 32 30 28 27 24 23 16 13 10 10 19 21 17 9 9 10 13 8 6 7 5 4 9 5 3 4 6 8 10 6 7 26 26 5 11 10 6 10 6 6
43 41 40 38 36 35 34 35 32 30 29 25 21 14 15 11 13 14 14 9 12 6 10 8 7 5 5 6 6 6 5 7 4 7 3 1 11 14 6 17 20 17 11 10 12 10 7
44 43 41 41 39 37 37 37 34 31 30 24 14 14 11 5 5 4 4 10 11 8 4 10 9 18 17 12 8 6 8 2 2 6 3 2 10 9 9 11 18 12 9 8 13 5 4
39 43 44 43 41 41 40 38 37 31 28 21 13 15 7 12 11 3 9 6 8 11 1 7 9 4 6 14 9 8 4 3 6 4 13 3 8 5 10 8 7 11 14 6 4 10 8
36 39 41 43 43 42 42 40 39 33 26 18 12 6 7 9 14 1 5 11 10 12 3 8 7 6 3 4 5 4 4 3 7 12 4 4 4 14 6 6 11 5 2 10 9 8 9
34 36 38 40 42 41 41 40 41 36 26 16 7 4 14 18 3 3 5 10 4 10 7 7 9 5 3 5 4 3 3 4 14 5 5 7 8 5 11 10 11 3 8 7 8 8 4
33 34 37 38 40 41 39 38 37 39 33 27 18 4 8 16 3 5 12 11 15 7 3 5 7 8 5 7 5 1 5 9 10 7 2 3 4 6 17 12 11 12 10 6 6 6 9
32 33 34 37 39 39 39 35 34 33 30 25 8 5 1 9 4 8 5 12 5 7 8 8 8 13 8 10 8 2 6 4 10 4 8 6 4 9 10 9 4 8 10 8 6 7 4
32 34 35 36 36 37 38 36 31 30 25 16 5 4 3 5 7 10 8 8 7 6 4 6 7 9 8 4 4 3 3 10 6 12 8 8 1 4 9 10 15 6 8 13 8 3 11
29 31 32 33 36 38 37 36 31 27 22 8 4 8 6 9 13 12 8 8 7 7 10 3 12 8 5 10 12 7 5 4 6 9 7 9 2 4 2 10 20 11 21 8 9 8 2
27 31 33 34 36 37 38 36 32 23 19 6 6 7 7 4 7 3 3 9 8 11 2 21 17 11 7 9 11 8 10 7 4 10 4 6 3 6 6 5 7 9 9 11 1 8 4
28 31 34 34 35 36 37 35 32 25 15 11 10 10 2 7 3 3 7 10 12 11 14 11 16 11 9 7 19 5 28 26 19 19 9 9 7 4 5 8 4 6 2 4 7 9 12
31 33 35 36 36 34 35 33 30 25 18 13 11 6 4 5 10 7 16 9 9 2 5 13 16 10 12 8 8 9 10 8 8 8 10 12 8 5 5 3 9 10 5 2 7 3 4
33 36 36 35 36 32 33 33 30 25 21 15 14 12 7 3 10 5 8 9 4 4 6 2 15 14 9 10 7 5 4 5 8 14 6 7 10 8 4 6 11 11 2 9 9 7 7
36 37 37 36 36 32 30 32 29 25 22 16 8 16 8 8 16 5 3 3 10 3 4 1 7 8 2 5 6 5 6 4 3 1 5 6 7 5 5 5 9 10 9 6 2 12 14
39 37 35 35 34 30 29 29 27 25 22 18 11 14 17 10 35 28 18 21 17 4 6 4 7 5 7 7 6 8 6 9 2 6 4 5 7 4 3 3 8 4 6 13 11 9 21
37 34 32 33 31 28 27 27 26 24 22 21 10 17 13 21 19 20 25 33 33 23 14 5 6 8 12 9 3 6 4 4 7 4 3 2 11 8 13 9 11 8 9 6 14 16 12
Wind_Direction_500mb
354 352 355 1 353 350 359 3 9 12 15 17 20 19 13 5 5 5 5 7 4 356 351 351 345 341 332 286 192 89 51 147 189 194 198 191 170 164 253 237 78 125 109 75 162 205 210
7 8 10 12 5 360 0 359 360 2 8 12 12 11 5 360 356 351 351 355 356 354 352 349 345 342 327 303 134 102 81 66 206 204 199 194 186 215 294 358 185 120 104 116 84 139 172
14 17 25 27 20 15 6 0 352 354 1 2 2 5 4 357 348 339 338 346 349 347 350 356 357 347 295 173 142 151 65 33 351 227 214 199 171 350 325 46 86 124 104 77 24 20 78
28 30 37 30 24 25 18 4 357 353 351 350 354 360 359 352 346 335 330 338 341 340 338 346 343 343 283 169 201 222 254 252 299 193 213 209 211 298 270 127 80 78 85 90 339 358 31
40 38 31 24 25 25 22 8 357 353 348 346 348 352 353 349 346 337 326 334 336 334 334 338 335 338 350 243 238 232 243 257 257 169 152 121 167 256 149 94 40 17 74 60 106 337 74
27 27 24 21 22 22 14 9 360 353 349 346 347 346 349 347 345 341 328 335 334 326 351 330 339 337 2 330 192 166 212 223 227 159 141 160 168 77 30 91 197 169 157 107 61 211 151
25 23 21 19 16 13 7 6 1 354 348 344 345 344 347 345 348 349 334 353 356 347 323 279 300 282 313 355 273 146 178 201 221 143 119 138 98 190 217 209 165 140 114 87 6 12 358
20 18 15 14 13 11 8 5 1 352 345 343 343 344 344 343 339 340 8 16 23 343 308 323 299 277 277 280 288 179 178 171 152 191 104 26 231 219 188 206 237 103 7 126 63 311 346
14 13 12 10 8 6 4 3 358 349 343 343 342 344 342 338 329 4 8 12 350 346 285 301 310 284 239 236 213 213 171 166 118 109 129 154 236 78 137 132 61 0 263 164 131 134 227
8 8 7 6 3 360 356 354 352 348 342 342 341 343 339 323 289 324 7 350 346 349 54 285 311 255 207 214 251 218 206 119 43 200 214 245 258 232 178 191 158 224 174 134 137 115 263
7 5 4 1 358 355 352 349 349 345 337 339 338 342 335 297 288 312 335 333 338 349 30 87 255 258 172 184 143 185 193 201 226 218 102 260 270 205 188 218 143 202 160 148 114 71 189
6 4 2 0 357 353 350 347 345 339 333 334 331 332 328 316 279 288 319 329 327 40 8 338 163 213 113 265 295 157 189 198 239 231 196 242 259 171 156 185 133 132 92 67 56 47 273
4 2 0 358 356 352 348 346 344 337 330 331 323 316 305 292 270 295 318 326 45 81 321 333 292 288 183 197 199 145 167 147 165 30 350 314 265 91 121 78 27 80 80 100 49 14 258
5 360 359 358 354 349 346 347 345 338 330 333 320 308 299 284 267 289 317 50 72 249 262 304 309 55 170 114 22 59 78 18 13 71 5 314 342 167 180 159 181 186 163 152 158 182 230
1 0 356 356 353 349 345 346 344 341 334 339 332 315 309 227 255 261 332 56 201 224 270 337 356 46 360 357 106 81 22 40 184 157 159 311 274 297 208 160 148 212 198 168 99 2 123
355 356 355 353 353 350 346 343 343 344 337 345 343 318 250 218 227 247 70 225 229 226 190 71 53 73 18 342 55 42 3 307 343 324 152 208 305 305 300 100 306 177 158 98 33 150 152
348 350 351 352 351 348 346 344 342 348 343 345 332 318 147 172 207 322 133 229 251 273 284 80 31 31 56 44 55 48 307 15 11 340 39 105 118 293 348 35 182 312 222 56 120 140 156
341 344 346 348 351 348 345 346 343 348 353 340 354 23 75 145 104 42 173 205 256 249 82 67 107 74 105 93 60 2 317 233 350 342 9 341 142 291 249 295 322 210 119 131 140 217 201
335 340 343 344 347 350 346 346 346 347 358 358 344 288 216 204 168 288 291 283 232 200 45 102 39 73 41 105 95 239 312 303 14 62 44 294 348 15 346 8 6 51 353 299 104 59 190
329 334 339 341 343 347 347 345 345 346 350 342 337 0 338 179 169 152 268 267 184 133 116 92 118 84 79 39 16 106 324 340 21 44 26 120 106 154 174 212 235 10 342 334 106 112 203
325 330 333 339 343 343 346 346 346 343 347 332 300 280 356 307 327 319 214 286 162 131 74 105 48 99 126 119 32 5 331 321 350 9 35 77 149 297 235 236 113 67 8 19 73 67 183
327 330 334 337 339 341 344 346 348 345 349 314 311 342 353 299 294 340 9 331 184 180 138 220 125 152 122 144 177 198 200 191 269 349 53 4 237 302 148 21 104 84 18 8 65 2 168
328 329 331 332 333 335 338 341 346 348 354 323 304 288 296 274 311 60 269 298 234 142 70 174 150 110 134 184 190 216 210 120 236 168 138 90 74 39 274 319 273 53 340 340 172 23 269
324 329 330 330 331 330 330 332 338 342 344 342 323 323 302 272 257 243 302 294 187 219 143 161 151 131 192 158 139 125 72 83 62 26 16 141 115 104 247 5 205 296 57 281 54 49 59
319 325 325 325 326 328 329 326 329 332 321 311 314 290 263 264 258 298 342 3 6 50 120 160 201 174 171 119 60 27 352 25 351 18 13 20 126 71 113 51 317 305 288 188 201 257 271
310 317 319 320 322 321 323 323 324 325 317 298 295 247 236 258 235 334 323 326 230 230 346 325 170 161 154 82 71 119 215 247 317 342 24 43 49 112 116 152 205 228 262 205 178 354 279
302 309 313 314 317 320 318 315 318 320 315 291 272 230 266 257 272 300 233 305 327 286 139 18 161 146 167 81 89 150 230 220 290 337 333 6 4 122 156 168 271 254 230 181 160 226 164
295 301 306 308 314 320 322 313 311 315 314 288 265 225 243 258 265 263 253 286 310 277 144 141 84 11 55 78 131 202 155 225 112 228 197 169 134 214 102 107 247 205 169 171 223 156 141
293 296 300 303 305 314 317 311 308 311 311 293 255 214 222 264 268 262 256 262 256 272 264 150 150 173 170 96 140 123 156 136 168 251 16 248 182 185 176 224 287 300 250 135 166 195 155
Wind_Speed_850mb
21 18 16 14 11 10 10 11 14 17 19 20 21 19 18 19 21 24 26 27 28 25 22 22 16 12 10 5 5 7 7 3 27 34 30 25 20 12 2 4 2 3 11 12 14 29 27
21 18 14 13 12 9 9 10 11 13 16 19 20 19 19 19 21 23 24 25 29 27 22 21 16 12 7 4 4 5 13 17 13 25 27 28 14 10 8 6 2 8 24 16 18 10 24
23 21 15 14 15 11 8 9 10 12 15 17 19 21 23 22 19 21 23 25 30 28 21 19 15 14 9 4 11 5 2 5 6 15 26 24 18 7 12 2 8 18 9 5 21 16 7
26 24 20 20 18 13 11 11 12 13 14 16 19 22 23 22 19 19 22 26 32 25 19 18 17 21 6 13 15 11 7 5 5 14 17 10 18 14 6 19 7 6 5 5 7 11 8
34 29 25 23 19 15 14 12 13 14 15 16 19 23 24 24 20 15 21 27 28 20 17 22 15 18 3 8 21 22 20 7 6 10 15 20 6 6 4 6 7 10 3 6 6 6 7
33 31 27 24 20 17 15 15 14 15 16 17 19 22 24 24 18 11 19 28 27 14 12 17 10 12 9 19 1 3 22 16 7 9 12 9 7 5 7 7 9 8 5 2 2 9 4
36 34 30 26 23 20 18 18 17 17 19 19 19 22 24 22 14 6 13 30 29 8 47 18 31 16 23 12 1 10 9 13 16 2 7 6 7 9 12 9 8 7 6 5 9 16 7
38 36 32 28 24 23 20 19 18 19 20 19 20 21 21 17 9 6 17 27 28 25 24 30 17 24 17 16 8 9 10 9 9 7 4 11 5 13 9 8 9 5 0 10 12 9 7
37 35 33 30 25 25 22 20 20 21 21 20 21 20 18 12 4 5 15 25 32 33 4 22 13 11 5 5 4 7 14 5 7 4 5 9 10 9 9 6 5 9 8 15 13 6 7
36 36 35 30 27 26 25 24 24 23 23 23 22 21 16 7 4 11 13 31 39 23 9 13 7 3 11 9 4 20 15 6 8 12 3 8 15 13 8 10 15 12 9 15 21 20 5
38 36 35 34 30 27 28 27 27 24 24 24 21 19 15 4 9 8 17 25 30 10 7 1 4 4 8 7 7 6 21 13 3 5 7 14 8 8 10 14 14 5 16 15 10 11 6
40 38 35 35 31 30 30 29 28 26 25 24 23 17 14 7 9 11 22 25 2 11 7 9 4 5 6 5 3 19 10 8 5 4 3 15 13 10 2 2 17 36 34 24 13 6 4
41 41 38 35 34 32 33 32 30 28 27 24 23 16 13 10 10 19 21 17 9 9 10 13 8 6 7 5 4 9 5 3 4 6 8 10 6 7 26 26 5 11 10 6 10 6 6
43 41 40 38 36 35 34 35 32 30 29 25 21 14 15 11 13 14 14 9 12 6 10 8 7 5 5 6 6 6 5 7 4 7 3 1 11 14 6 17 20 17 11 10 12 10 7
44 43 41 41 39 37 37 37 34 31 30 24 14 14 11 5 5 4 4 10 11 8 4 10 9 18 17 12 8 6 8 2 2 6 3 2 10 9 9 11 18 12 9 8 13 5 4
39 43 44 43 41 41 40 38 37 31 28 21 13 15 7 12 11 3 9 6 8 11 1 7 9 4 6 14 9 8 4 3 6 4 13 3 8 5 10 8 7 11 14 6 4 10 8
36 39 41 43 43 42 42 40 39 33 26 18 12 6 7 9 14 1 5 11 10 12 3 8 7 6 3 4 5 4 4 3 7 12 4 4 4 14 6 6 11 5 2 10 9 8 9
34 36 38 40 42 41 41 40 41 36 26 16 7 4 14 18 3 3 5 10 4 10 7 7 9 5 3 5 4 3 3 4 14 5 5 7 8 5 11 10 11 3 8 7 8 8 4
33 34 37 38 40 41 39 38 37 39 33 27 18 4 8 16 3 5 12 11 15 7 3 5 7 8 5 7 5 1 5 9 10 7 2 3 4 6 17 12 11 12 10 6 6 6 9
32 33 34 37 39 39 39 35 34 33 30 25 8 5 1 9 4 8 5 12 5 7 8 8 8 13 8 10 8 2 6 4 10 4 8 6 4 9 10 9 4 8 10 8 6 7 4
32 34 35 36 36 37 38 36 31 30 25 16 5 4 3 5 7 10 8 8 7 6 4 6 7 9 8 4 4 3 3 10 6 12 8 8 1 4 9 10 15 6 8 13 8 3 11
29 31 32 33 36 38 37 36 31 27 22 8 4 8 6 9 13 12 8 8 7 7 10 3 12 8 5 10 12 7 5 4 6 9 7 9 2 4 2 10 20 11 21 8 9 8 2
27 31 33 34 36 37 38 36 32 23 19 6 6 7 7 4 7 3 3 9 8 11 2 21 17 11 7 9 11 8 10 7 4 10 4 6 3 6 6 5 7 9 9 11 1 8 4
28 31 34 34 35 36 37 35 32 25 15 11 10 10 2 7 3 3 7 10 12 11 14 11 16 11 9 7 19 5 28 26 19 19 9 9 7 4 5 8 4 6 2 4 7 9 12
31 33 35 36 36 34 35 33 30 25 18 13 11 6 4 5 10 7 16 9 9 2 5 13 16 10 12 8 8 9 10 8 8 8 10 12 8 5 5 3 9 10 5 2 7 3 4
33 36 36 35 36 32 33 33 30 25 21 15 14 12 7 3 10 5 8 9 4 4 6 2 15 14 9 10 7 5 4 5 8 14 6 7 10 8 4 6 11 11 2 9 9 7 7
36 37 37 36 36 32 30 32 29 25 22 16 8 16 8 8 16 5 3 3 10 3 4 1 7 8 2 5 6 5 6 4 3 1 5 6 7 5 5 5 9 10 9 6 2 12 14
39 37 35 35 34 30 29 29 27 25 22 18 11 14 17 10 35 28 18 21 17 4 6 4 7 5 7 7 6 8 6 9 2 6 4 5 7 4 3 3 8 4 6 13 11 9 21
37 34 32 33 31 28 27 27 26 24 22 21 10 17 13 21 19 20 25 33 33 23 14 5 6 8 12 9 3 6 4 4 7 4 3 2 11 8 13 9 11 8 9 6 14 16 12
Wind_Direction_850mb
354 352 355 1 353 350 359 3 9 12 15 17 20 19 13 5 5 5 5 7 4 356 351 351 345 341 332 286 192 89 51 147 189 194 198 191 170 164 253 237 78 125 109 75 162 205 210
7 8 10 12 5 360 0 359 360 2 8 12 12 11 5 360 356 351 351 355 356 354 352 349 345 342 327 303 134 102 81 66 206 204 199 194 186 215 294 358 185 120 104 116 84 139 172
14 17 25 27 20 15 6 0 352 354 1 2 2 5 4 357 348 339 338 346 349 347 350 356 357 347 295 173 142 151 65 33 351 227 214 199 171 350 325 46 86 124 104 77 24 20 78
28 30 37 30 24 25 18 4 357 353 351 350 354 360 359 352 346 335 330 338 341 340 338 346 343 343 283 169 201 222 254 252 299 193 213 209 211 298 270 127 80 78 85 90 339 358 31
40 38 31 24 25 25 22 8 357 353 348 346 348 352 353 349 346 337 326 334 336 334 334 338 335 338 350 243 238 232 243 257 257 169 152 121 167 256 149 94 40 17 74 60 106 337 74
27 27 24 21 22 22 14 9 360 353 349 346 347 346 349 347 345 341 328 335 334 326 351 330 339 337 2 330 192 166 212 223 227 159 141 160 168 77 30 91 197 169 157 107 61 211 151
25 23 21 19 16 13 7 6 1 354 348 344 345 344 347 345 348 349 334 353 356 347 323 279 300 282 313 355 273 146 178 201 221 143 119 138 98 190 217 209 165 140 114 87 6 12 358
20 18 15 14 13 11 8 5 1 352 345 343 343 344 344 343 339 340 8 16 23 343 308 323 299 277 277 280 288 179 178 171 152 191 104 26 231 219 188 206 237 103 7 126 63 311 346
14 13 12 10 8 6 4 3 358 349 343 343 342 344 342 338 329 4 8 12 350 346 285 301 310 284 239 236 213 213 171 166 118 109 129 154 236 78 137 132 61 0 263 164 131 134 227
8 8 7 6 3 360 356 354 352 348 342 342 341 343 339 323 289 324 7 350 346 349 54 285 311 255 207 214 251 218 206 119 43 200 214 245 258 232 178 191 158 224 174 134 137 115 263
7 5 4 1 358 355 352 349 349 345 337 339 338 342 335 297 288 312 335 333 338 349 30 87 255 258 172 184 143 185 193 201 226 218 102 260 270 205 188 218 143 202 160 148 114 71 189
6 4 2 0 357 353 350 347 345 339 333 334 331 332 328 316 279 288 319 329 327 40 8 338 163 213 113 265 295 157 189 198 239 231 196 242 259 171 156 185 133 132 92 67 56 47 273
4 2 0 358 356 352 348 346 344 337 330 331 323 316 305 292 270 295 318 326 45 81 321 333 292 288 183 197 199 145 167 147 165 30 350 314 265 91 121 78 27 80 80 100 49 14 258
5 360 359 358 354 349 346 347 345 338 330 333 320 308 299 284 267 289 317 50 72 249 262 304 309 55 170 114 22 59 78 18 13 71 5 314 342 167 180 159 181 186 163 152 158 182 230
1 0 356 356 353 349 345 346 344 341 334 339 332 315 309 227 255 261 332 56 201 224 270 337 356 46 360 357 106 81 22 40 184 157 159 311 274 297 208 160 148 212 198 168 99 2 123
355 356 355 353 353 350 346 343 343 344 337 345 343 318 250 218 227 247 70 225 229 226 190 71 53 73 18 342 55 42 3 307 343 324 152 208 305 305 300 100 306 177 158 98 33 150 152
348 350 351 352 351 348 346 344 342 348 343 345 332 318 147 172 207 322 133 229 251 273 284 80 31 31 56 44 55 48 307 15 11 340 39 105 118 293 348 35 182 312 222 56 120 140 156
341 344 346 348 351 348 345 346 343 348 353 340 354 23 75 145 104 42 173 205 256 249 82 67 107 74 105 93 60 2 317 233 350 342 9 341 142 291 249 295 322 210 119 131 140 217 201
335 340 343 344 347 350 346 346 346 347 358 358 344 288 216 204 168 288 291 283 232 200 45 102 39 73 41 105 95 239 312 303 14 62 44 294 348 15 346 8 6 51 353 299 104 59 190
329 334 339 341 343 347 347 345 345 346 350 342 337 0 338 179 169 152 268 267 184 133 116 92 118 84 79 39 16 106 324 340 21 44 26 120 106 154 174 212 235 10 342 334 106 112 203
325 330 333 339 343 343 346 346 346 343 347 332 300 280 356 307 327 319 214 286 162 131 74 105 48 99 126 119 32 5 331 321 350 9 35 77 149 297 235 236 113 67 8 19 73 67 183
327 330 334 337 339 341 344 346 348 345 349 314 311 342 353 299 294 340 9 331 184 180 138 220 125 152 122 144 177 198 200 191 269 349 53 4 237 302 148 21 104 84 18 8 65 2 168
328 329 331 332 333 335 338 341 346 348 354 323 304 288 296 274 311 60 269 298 234 142 70 174 150 110 134 184 190 216 210 120 236 168 138 90 74 39 274 319 273 53 340 340 172 23 269
324 329 330 330 331 330 330 332 338 342 344 342 323 323 302 272 257 243 302 294 187 219 143 161 151 131 192 158 139 125 72 83 62 26 16 141 115 104 247 5 205 296 57 281 54 49 59
319 325 325 325 326 328 329 326 329 332 321 311 314 290 263 264 258 298 342 3 6 50 120 160 201 174 171 119 60 27 352 25 351 18 13 20 126 71 113 51 317 305 288 188 201 257 271
310 317 319 320 322 321 323 323 324 325 317 298 295 247 236 258 235 334 323 326 230 230 346 325 170 161 154 82 71 119 215 247 317 342 24 43 49 112 116 152 205 228 262 205 178 354 279
302 309 313 314 317 320 318 315 318 320 315 291 272 230 266 257 272 300 233 305 327 286 139 18 161 146 167 81 89 150 230 220 290 337 333 6 4 122 156 168 271 254 230 181 160 226 164
295 301 306 308 314 320 322 313 311 315 314 288 265 225 243 258 265 263 253 286 310 277 144 141 84 11 55 78 131 202 155 225 112 228 197 169 134 214 102 107 247 205 169 171 223 156 141
293 296 300 303 305 314 317 311 308 311 311 293 255 214 222 264 268 262 256 262 256 272 264 150 150 173 170 96 140 123 156 136 168 251 16 248 182 185 176 224 287 300 250 135 166 195 155